sat.trackr.live / text

‹ back to catalog

CLARITY-1

NORAD 63227 · 2025-052T

PAYLOAD ACTIVE UNKNOWN

§ Identity

Operator
Country
US
Launch date
2025-03-15
Launch site
AFWTR
Launch vehicle
Mass (kg)
RCS (m²)

External: N2YO · Heavens-Above · Gunter

§ Orbital elements

Epoch: 2026-06-10T03:47:02.833152Z

Period
87.33 min
Inclination
97.3825°
Eccentricity
0.0009598
Mean motion
16.48960409 rev/d
Perigee alt
135.8 km
Apogee alt
148.3 km
Semi-major
6,520.2 km
B*
1.2257e-4
RAAN
82.7091°
Arg perigee
247.2263°
Mean anomaly
112.8028°
Rev number
7,059

§ Raw data

CLARITY-11 63227U 25052T   26161.15767168  .09211707  26169-5  12257-3 0  99972 63227  97.3825  82.7091 0009598 247.2263 112.8028 16.48960409 70590

JSON: /api/v1/satellites/63227 · /tle

For live sub-satellite position, see the globe view (requires WebGL).

§ Visibility from observer

Set your observer location to see the next 7 days of passes ≥ 10°. The values pass through the URL so the page stays shareable.

No JS? Fill the form by hand. The geolocation button needs JavaScript.

§ Radio — SatNOGS DB

ModeDescriptionDownlinkUplink
FM Mode S - Transmitter - TT&C 2.223 GHz
FM Mode X - Transmitter - EESS 8.200 GHz

2 transmitters · refreshed weekly from db.satnogs.org